DW9356 Weather Reports


Display with metric or nautical units.
time (UTC)temp
F
wind
direction
speed
MPH
gust
MPH
rain 1hr
in
rain 24hr
in
rain mn
in
humidity
%
barometer
mb
20260507060244 68 0 3.0 7.0 0.00 0.02 0.00 85 1012.9
20260507055713 68 0 3.0 7.0 0.00 0.02 0.00 85 1013.1
20260507054924 68 0 2.0 7.0 0.00 0.02 0.00 85 1012.9
20260507054358 68 0 3.0 8.0 0.00 0.02 0.00 84 1012.9
20260507053832 68 0 3.0 8.0 0.00 0.02 0.00 84 1013.0
20260507053330 69 0 3.0 8.0 0.00 0.02 0.00 85 1012.9
20260507052803 69 0 3.0 7.0 0.00 0.02 0.00 85 1012.8
20260507051735 69 0 3.0 10.0 0.00 0.02 0.00 85 1012.9
20260507051207 69 0 4.0 10.0 0.00 0.02 0.00 84 1012.8
20260507050703 69 0 4.0 9.0 0.00 0.02 0.00 84 1012.8
20260507050155 69 0 4.0 8.0 0.00 0.02 0.00 84 1012.9
20260507050117 69 0 3.0 8.0 0.00 0.02 0.02 84 1013.0
20260507045128 69 0 3.0 7.0 0.00 0.02 0.02 84 1013.0
20260507044603 69 0 3.0 7.0 0.00 0.02 0.02 84 1012.9
20260507044252 69 0 4.0 8.0 0.00 0.02 0.02 84 1012.9
20260507043508 70 0 4.0 8.0 0.00 0.02 0.02 84 1012.9
20260507043005 70 0 3.0 8.0 0.00 0.02 0.02 84 1012.8
20260507042502 70 32 3.0 8.0 0.00 0.02 0.02 84 1012.8
20260507041959 70 350 3.0 7.0 0.00 0.02 0.02 84 1012.8
20260507041456 70 28 3.0 7.0 0.00 0.02 0.02 84 1012.8
20260507040954 70 14 3.0 7.0 0.00 0.02 0.02 84 1012.7
20260507040426 70 5 3.0 9.0 0.00 0.02 0.02 84 1012.7
20260507035924 71 329 3.0 9.0 0.00 0.02 0.02 84 1012.7
20260507035358 71 321 3.0 8.0 0.00 0.02 0.02 84 1012.6
20260507034831 71 13 3.0 5.0 0.00 0.02 0.02 84 1012.7
20260507034333 71 355 3.0 8.0 0.00 0.02 0.02 84 1012.7
20260507033800 71 326 3.0 8.0 0.00 0.02 0.02 84 1012.6
20260507033257 71 15 3.0 8.0 0.00 0.02 0.02 84 1012.4
20260507032755 71 5 3.0 8.0 0.00 0.02 0.02 84 1012.4
20260507032249 71 355 2.0 7.0 0.00 0.02 0.02 84 1012.3
20260507031723 72 355 2.0 7.0 0.00 0.02 0.02 84 1012.2
20260507031218 72 298 3.0 7.0 0.00 0.02 0.02 84 1012.1
20260507030700 72 35 3.0 6.0 0.00 0.02 0.02 84 1011.9
20260507030159 72 339 2.0 6.0 0.00 0.02 0.02 84 1011.9
20260507025921 72 5 3.0 8.0 0.00 0.02 0.02 84 1011.7
20260507025158 72 29 4.0 8.0 0.00 0.02 0.02 83 1011.7
20260507024656 72 17 3.0 8.0 0.00 0.02 0.02 83 1011.5
20260507024128 72 0 3.0 8.0 0.00 0.02 0.02 84 1011.5
20260507023626 72 5 3.0 9.0 0.00 0.02 0.02 84 1011.5
20260507023058 73 355 3.0 9.0 0.00 0.02 0.02 84 1011.2
20260507022555 73 38 3.0 9.0 0.00 0.02 0.02 84 1011.2
20260507022030 73 36 3.0 7.0 0.00 0.02 0.02 84 1011.0
20260507021527 73 23 3.0 9.0 0.00 0.02 0.02 84 1010.9
20260507021506 73 313 3.0 9.0 0.00 0.02 0.02 84 1010.8
20260507020459 73 14 3.0 9.0 0.00 0.02 0.02 84 1010.6
20260507015958 74 5 3.0 9.0 0.00 0.02 0.02 84 1010.7
20260507015710 74 270 3.0 7.0 0.00 0.02 0.02 84 1010.5
20260507014943 74 41 3.0 8.0 0.00 0.02 0.02 84 1010.3
20260507014417 74 5 3.0 8.0 0.00 0.02 0.02 84 1010.2
20260507013906 74 5 3.0 6.0 0.00 0.02 0.02 85 1010.2
20260507013404 74 342 3.0 7.0 0.00 0.02 0.02 84 1010.2
20260507012851 74 288 3.0 7.0 0.00 0.02 0.02 85 1010.0
20260507012614 75 355 3.0 7.0 0.00 0.02 0.02 85 1009.8
20260507012044 75 42 3.0 7.0 0.00 0.02 0.02 85 1009.8
20260507011324 75 17 2.0 6.0 0.00 0.02 0.02 85 1009.8
20260507011023 75 17 2.0 6.0 0.00 0.02 0.02 85 1009.8
20260507010256 75 330 2.0 6.0 0.00 0.02 0.02 85 1009.6
20260507005753 76 5 2.0 8.0 0.00 0.02 0.02 85 1009.4
20260507005252 76 325 3.0 8.0 0.00 0.02 0.02 84 1009.3
20260507004724 76 305 3.0 8.0 0.00 0.02 0.02 84 1009.3
20260507004221 76 340 3.0 8.0 0.00 0.02 0.02 84 1009.2
20260507003716 76 0 4.0 9.0 0.00 0.02 0.02 84 1009.1
20260507003213 77 5 3.0 9.0 0.00 0.02 0.02 84 1008.9
20260507002711 77 355 4.0 12.0 0.00 0.02 0.02 83 1008.9
20260507002428 77 0 4.0 12.0 0.00 0.02 0.02 83 1008.8
20260507001642 78 287 4.0 10.0 0.00 0.02 0.02 83 1008.8
20260507001129 79 23 4.0 9.0 0.00 0.02 0.02 83 1008.8
20260507000632 80 58 5.0 11.0 0.00 0.02 0.02 81 1008.7
20260507000106 82 321 3.0 11.0 0.00 0.02 0.02 79 1008.4
20260506235531 84 309 1.0 4.0 0.00 0.02 0.02 84 1008.2
20260506235227 84 302 1.0 4.0 0.00 0.02 0.02 83 1008.3
20260506234440 85 350 1.0 3.0 0.00 0.02 0.02 83 1008.4
20260506233938 85 16 0.0 3.0 0.00 0.02 0.02 83 1008.2
20260506233412 85 300 0.0 2.0 0.00 0.02 0.02 83 1008.1
20260506232848 85 300 0.0 3.0 0.00 0.02 0.02 83 1008.0
20260506232345 84 291 1.0 3.0 0.00 0.02 0.02 83 1008.0
20260506232106 84 289 1.0 3.0 0.00 0.02 0.02 83 1008.0
20260506231344 84 288 1.0 3.0 0.00 0.02 0.02 83 1008.0
20260506230819 84 285 1.0 3.0 0.00 0.02 0.02 84 1008.0
20260506230253 84 289 1.0 3.0 0.00 0.02 0.02 84 1008.0
20260506225749 84 317 0.0 3.0 0.00 0.02 0.02 84 1008.1
20260506225225 84 317 1.0 3.0 0.00 0.02 0.02 84 1008.1
20260506224702 84 303 1.0 3.0 0.00 0.02 0.02 84 1008.2
20260506224158 85 292 0.0 2.0 0.00 0.02 0.02 84 1007.9
20260506223631 85 290 0.0 2.0 0.00 0.02 0.02 84 1007.9
20260506223103 85 290 0.0 2.0 0.00 0.02 0.02 85 1008.0
20260506222759 85 289 0.0 0.0 0.00 0.02 0.02 86 1007.8
20260506222036 84 288 0.0 2.0 0.00 0.02 0.02 86 1007.9
20260506221512 84 287 0.0 3.0 0.00 0.02 0.02 86 1007.8
20260506220944 84 286 0.0 3.0 0.00 0.02 0.02 86 1007.8
20260506220442 84 282 0.0 2.0 0.00 0.02 0.02 86 1007.8
20260506215939 84 278 0.0 2.0 0.00 0.02 0.02 87 1007.8
20260506215439 84 278 0.0 2.0 0.00 0.02 0.02 86 1007.8
20260506214913 83 275 0.0 2.0 0.00 0.02 0.02 86 1007.9
20260506214609 84 273 0.0 2.0 0.01 0.02 0.02 88 1007.9
20260506213847 84 315 0.0 2.0 0.02 0.02 0.02 86 1007.9
20260506213345 84 315 0.0 4.0 0.02 0.02 0.02 85 1007.9
20260506212845 84 315 1.0 4.0 0.02 0.02 0.02 84 1007.9
20260506212329 84 305 2.0 5.0 0.02 0.02 0.02 84 1007.9
20260506211827 84 328 1.0 5.0 0.02 0.02 0.02 85 1007.8
20260506211324 84 355 1.0 4.0 0.02 0.02 0.02 87 1007.8
20260506210826 84 344 1.0 4.0 0.02 0.02 0.02 87 1007.9
20260506210300 84 336 1.0 4.0 0.02 0.02 0.02 87 1008.0
20260506205800 84 339 1.0 4.0 0.02 0.02 0.02 87 1008.0
20260506205232 84 298 1.0 3.0 0.02 0.02 0.02 85 1008.0
20260506204706 84 296 1.0 3.0 0.02 0.02 0.02 84 1008.2
20260506204143 85 294 1.0 3.0 0.01 0.01 0.01 82 1008.3
20260506203641 85 294 1.0 3.0 0.00 0.00 0.00 81 1008.2
20260506203138 85 281 1.0 3.0 0.00 0.00 0.00 81 1008.3
20260506202638 85 263 1.0 3.0 0.00 0.00 0.00 80 1008.3
20260506202113 85 164 1.0 3.0 0.00 0.00 0.00 81 1008.4
20260506201551 85 192 1.0 3.0 0.00 0.00 0.00 81 1008.4
20260506201052 85 202 1.0 4.0 0.00 0.00 0.00 82 1008.5
20260506200524 85 202 1.0 4.0 0.00 0.00 0.00 81 1008.5
20260506200023 86 163 1.0 3.0 0.00 0.00 0.00 80 1008.6
20260506195521 86 163 1.0 3.0 0.00 0.00 0.00 78 1008.5
20260506195023 87 169 1.0 3.0 0.00 0.00 0.00 78 1008.6
20260506194456 87 246 1.0 3.0 0.00 0.00 0.00 77 1008.6
20260506194215 87 209 1.0 4.0 0.00 0.00 0.00 77 1008.6
20260506193428 87 188 1.0 4.0 0.00 0.00 0.00 79 1008.6
20260506192903 86 148 1.0 4.0 0.00 0.00 0.00 81 1008.7
20260506192401 86 173 1.0 4.0 0.00 0.00 0.00 81 1008.7
20260506191838 85 113 1.0 3.0 0.00 0.00 0.00 83 1008.8
20260506191314 85 119 1.0 3.0 0.00 0.00 0.00 82 1008.9
20260506190812 85 117 1.0 3.0 0.00 0.00 0.00 80 1009.0
20260506190309 85 174 1.0 3.0 0.00 0.00 0.00 80 1009.1
20260506185810 85 173 1.0 3.0 0.00 0.00 0.00 80 1009.1
20260506185529 85 173 1.0 3.0 0.00 0.00 0.00 81 1009.1
20260506184741 85 200 1.0 3.0 0.00 0.00 0.00 80 1009.1
20260506184238 85 200 1.0 3.0 0.00 0.00 0.00 81 1009.2
20260506183952 85 201 1.0 3.0 0.00 0.00 0.00 79 1009.2
20260506183233 86 201 1.0 4.0 0.00 0.00 0.00 79 1009.3
20260506182706 85 199 2.0 4.0 0.00 0.00 0.00 81 1009.4
20260506182148 85 136 1.0 4.0 0.00 0.00 0.00 83 1009.5
20260506181635 84 126 1.0 4.0 0.00 0.00 0.00 82 1009.6
20260506181133 84 82 1.0 4.0 0.00 0.00 0.00 84 1009.7
20260506180634 83 188 1.0 4.0 0.00 0.00 0.00 83 1009.9
20260506180110 83 183 1.0 4.0 0.00 0.00 0.00 83 1009.9
20260506175611 83 176 1.0 3.0 0.00 0.00 0.00 84 1010.0
20260506175108 83 176 1.0 3.0 0.00 0.00 0.00 84 1010.2
20260506174605 83 181 1.0 4.0 0.00 0.00 0.00 84 1010.2
20260506174104 83 183 1.0 4.0 0.00 0.00 0.00 85 1010.3
20260506173711 83 180 1.0 3.0 0.00 0.00 0.00 85 1010.6
20260506173557 83 183 1.0 3.0 0.00 0.00 0.00 85 1010.4
20260506173108 83 180 0.0 3.0 0.00 0.00 0.00 85 1010.4
20260506171947 82 180 1.0 2.0 0.00 0.00 0.00 86 1010.6
20260506171448 82 194 1.0 5.0 0.00 0.00 0.00 86 1010.8
20260506170922 82 196 2.0 5.0 0.00 0.00 0.00 86 1010.7
20260506170419 82 187 1.0 3.0 0.00 0.00 0.00 86 1010.7
20260506165855 82 153 2.0 6.0 0.00 0.00 0.00 86 1010.7
20260506165552 82 178 2.0 6.0 0.00 0.00 0.00 85 1010.8
20260506164804 82 144 1.0 6.0 0.00 0.00 0.00 85 1010.6
20260506164304 82 172 1.0 6.0 0.00 0.00 0.00 85 1010.5
20260506164008 82 183 1.0 4.0 0.00 0.00 0.00 85 1010.5
20260506163248 82 139 1.0 4.0 0.00 0.00 0.00 86 1010.4
20260506162724 82 139 1.0 4.0 0.00 0.00 0.00 86 1010.5
20260506162200 82 182 1.0 3.0 0.00 0.00 0.00 87 1010.3
20260506161700 82 200 1.0 3.0 0.00 0.00 0.00 87 1010.3
20260506161357 82 201 0.0 3.0 0.00 0.00 0.00 87 1010.3
20260506160608 82 148 0.0 0.0 0.00 0.00 0.00 87 1010.1
20260506160042 81 147 0.0 0.0 0.00 0.00 0.00 87 1010.0
20260506155543 81 147 0.0 2.0 0.00 0.00 0.00 86 1010.2
20260506155034 81 146 0.0 2.0 0.00 0.00 0.00 86 1010.1
20260506154753 81 144 1.0 3.0 0.00 0.00 0.00 87 1010.1
20260506154030 81 143 0.0 3.0 0.00 0.00 0.00 87 1010.0
20260506153531 81 142 0.0 3.0 0.00 0.00 0.00 87 1010.0
20260506153026 81 142 1.0 4.0 0.00 0.00 0.00 86 1010.1
20260506152521 81 143 0.0 4.0 0.00 0.00 0.00 87 1010.0
20260506152018 81 149 1.0 2.0 0.00 0.00 0.00 88 1010.0
20260506151744 81 149 1.0 4.0 0.00 0.00 0.00 88 1009.9
20260506150955 81 146 0.0 2.0 0.00 0.00 0.00 89 1009.8
20260506150938 81 147 0.0 2.0 0.00 0.00 0.00 89 1009.7
20260506145929 80 140 0.0 3.0 0.00 0.00 0.00 89 1009.7
20260506145406 80 140 1.0 3.0 0.00 0.00 0.00 90 1009.7
20260506144849 80 137 1.0 3.0 0.00 0.00 0.00 90 1009.7
20260506144349 80 143 1.0 3.0 0.00 0.00 0.00 91 1009.6
20260506144108 80 155 1.0 3.0 0.00 0.00 0.00 91 1009.5
20260506143332 80 167 1.0 3.0 0.00 0.00 0.00 92 1009.3
20260506143053 79 137 1.0 3.0 0.00 0.00 0.00 92 1009.3
20260506142310 79 133 1.0 3.0 0.00 0.00 0.00 93 1009.2
20260506141809 79 132 1.0 4.0 0.00 0.00 0.00 93 1009.3
20260506141306 78 132 1.0 4.0 0.00 0.00 0.00 94 1009.3
20260506140808 78 143 1.0 4.0 0.00 0.00 0.00 94 1009.3
20260506140306 78 127 1.0 3.0 0.00 0.00 0.00 94 1009.4
20260506135806 78 121 1.0 3.0 0.00 0.00 0.00 95 1009.4
20260506135241 78 118 1.0 3.0 0.00 0.00 0.00 95 1009.4
20260506134741 77 114 0.0 2.0 0.00 0.00 0.00 95 1009.5
20260506134233 77 114 0.0 1.0 0.00 0.00 0.00 95 1009.5
20260506133731 77 114 0.0 3.0 0.00 0.00 0.00 95 1009.5
20260506133229 77 114 0.0 3.0 0.00 0.00 0.00 95 1009.5
20260506132729 77 167 0.0 3.0 0.00 0.00 0.00 95 1009.5
20260506132433 77 167 0.0 3.0 0.00 0.00 0.00 95 1009.6
20260506131646 77 171 0.0 2.0 0.00 0.00 0.00 96 1009.7
20260506131120 76 171 0.0 2.0 0.00 0.00 0.00 96 1009.7
20260506130559 76 170 0.0 2.0 0.00 0.00 0.00 96 1009.6
20260506125800 76 170 0.0 2.0 0.00 0.00 0.00 96 1009.6
20260506125309 76 170 0.0 2.0 0.00 0.00 0.00 96 1009.5
20260506124542 76 170 0.0 2.0 0.00 0.00 0.00 96 1009.4
20260506124042 76 170 0.0 2.0 0.00 0.00 0.00 96 1009.4
20260506123523 76 171 0.0 2.0 0.00 0.00 0.00 96 1009.4
20260506122959 76 171 0.0 1.0 0.00 0.00 0.00 95 1009.3
20260506122450 76 171 0.0 1.0 0.00 0.00 0.00 95 1009.3
20260506121946 75 171 0.0 1.0 0.00 0.00 0.00 95 1009.3
20260506121449 75 171 0.0 1.0 0.00 0.00 0.00 95 1009.2
20260506121211 75 171 0.0 1.0 0.00 0.00 0.00 95 1009.2
20260506120447 75 171 0.0 1.0 0.00 0.00 0.00 95 1009.2
20260506115925 75 171 0.0 1.0 0.00 0.00 0.00 95 1009.2
20260506115406 75 171 0.0 0.0 0.00 0.00 0.00 95 1009.1
20260506114842 75 171 0.0 0.0 0.00 0.00 0.00 95 1009.0
20260506114343 75 171 0.0 1.0 0.00 0.00 0.00 95 1009.0
20260506114101 75 171 0.0 2.0 0.00 0.00 0.00 95 1009.0
20260506113313 75 171 0.0 2.0 0.00 0.00 0.00 95 1008.9
20260506112810 75 171 0.0 1.0 0.00 0.00 0.00 95 1008.8
20260506112311 75 171 0.0 4.0 0.00 0.00 0.00 95 1008.7
20260506112030 75 171 1.0 4.0 0.00 0.00 0.00 95 1008.6
20260506111756 75 133 1.0 4.0 0.00 0.00 0.00 95 1008.5
20260506110808 75 165 1.0 5.0 0.00 0.00 0.00 94 1008.4
20260506110243 75 169 0.0 3.0 0.00 0.00 0.00 94 1008.3
20260506105718 75 195 1.0 3.0 0.00 0.00 0.00 94 1008.2
20260506105220 75 196 1.0 4.0 0.00 0.00 0.00 94 1008.2
20260506104719 75 194 1.0 4.0 0.00 0.00 0.00 94 1008.1
20260506104218 75 178 1.0 4.0 0.00 0.00 0.00 94 1008.1
20260506103717 75 179 1.0 4.0 0.00 0.00 0.00 93 1008.2
20260506103154 76 165 1.0 4.0 0.00 0.00 0.00 93 1008.2
20260506102653 76 163 2.0 5.0 0.00 0.00 0.00 94 1008.2
20260506102142 76 174 2.0 6.0 0.00 0.00 0.00 93 1008.1
20260506101839 76 165 2.0 6.0 0.00 0.00 0.00 93 1008.1
20260506101057 76 189 2.0 4.0 0.00 0.00 0.00 93 1008.2
20260506100556 76 187 2.0 4.0 0.00 0.00 0.00 93 1008.2
20260506100057 76 177 1.0 3.0 0.00 0.00 0.00 93 1008.2
20260506095537 76 193 1.0 5.0 0.00 0.00 0.00 93 1008.1
20260506095009 76 172 1.0 6.0 0.00 0.00 0.00 93 1008.1
20260506094442 76 196 1.0 6.0 0.00 0.00 0.00 93 1008.0
20260506093941 76 262 1.0 5.0 0.00 0.00 0.00 93 1007.9
20260506093418 76 160 2.0 7.0 0.00 0.00 0.00 92 1007.9
20260506092908 76 153 2.0 7.0 0.00 0.00 0.00 92 1007.8
20260506092408 76 161 2.0 5.0 0.00 0.00 0.00 92 1007.7
20260506091908 76 152 1.0 5.0 0.00 0.00 0.00 92 1007.7
20260506091406 77 179 2.0 4.0 0.00 0.00 0.00 92 1007.7
20260506091109 77 148 3.0 11.0 0.00 0.00 0.00 92 1007.7
20260506090605 77 201 3.0 11.0 0.00 0.00 0.00 92 1007.7
20260506090038 77 211 3.0 8.0 0.00 0.00 0.00 92 1007.8
20260506085256 77 212 2.0 8.0 0.00 0.00 0.00 92 1007.8
20260506084731 77 96 2.0 6.0 0.00 0.00 0.00 92 1007.9
20260506084206 77 177 2.0 4.0 0.00 0.00 0.00 92 1008.0
20260506083643 77 141 1.0 4.0 0.00 0.00 0.00 92 1007.9
20260506083122 77 186 2.0 7.0 0.00 0.00 0.00 92 1008.0
20260506082622 77 188 2.0 7.0 0.00 0.00 0.00 92 1008.0
20260506082125 77 156 2.0 5.0 0.00 0.00 0.00 92 1008.0
20260506081603 77 193 2.0 5.0 0.00 0.00 0.00 92 1008.1
20260506081039 77 180 1.0 5.0 0.00 0.00 0.00 92 1008.2
20260506080514 77 160 2.0 5.0 0.00 0.00 0.00 92 1008.3
20260506080451 77 200 2.0 5.0 0.00 0.00 0.00 92 1008.3
20260506073408 77 133 1.0 7.0 0.00 0.00 0.00 92 1008.7
20260506072841 77 168 2.0 6.0 0.00 0.00 0.00 91 1008.7
20260506072325 77 161 2.0 6.0 0.00 0.00 0.00 91 1008.8
20260506071825 77 190 2.0 6.0 0.00 0.00 0.00 91 1008.9
20260506071549 77 132 1.0 6.0 0.00 0.00 0.00 91 1008.8
20260506071256 77 184 2.0 7.0 0.00 0.00 0.00 91 1008.9
20260506070914 77 178 1.0 6.0 0.00 0.00 0.00 91 1008.9
20260506062214 77 125 2.0 8.0 0.00 0.00 0.00 91 1008.9
20260506061713 77 171 2.0 7.0 0.00 0.00 0.00 91 1008.9
20260506061150 77 188 3.0 9.0 0.00 0.00 0.00 91 1009.0